Darstellungsparameter: Aktuell verwendete Einstellungen:
Skalierung der Graphiken ... ?
xyx+y,   Skalierungsfaktor:      Skalierung: Modus: x, Faktor: 1
Darstellungszeitraum ... ?
Vom - - bis: - -   Zeitraum: 24.11.2014 - 24.11.2014
Min/Max/Avg-Anzeige ... ?
Zeige MMA aktuell
Zeige MMA Monat
Zeige MMA alles
Zeige --A aktuell
Zeige --A Monat
Zeige --A alles
Keine MMA-Anzeige
MMA:
Average (ber die Originaldaten)
MMA-Basis: 24.11.2014 - 24.11.2014
Quicknavigation für Darstellung... ?
Tage:      1T, 2T, 3T, 5T -1T -2T -3T -5T +1T +2T +3T +5T
Wochen: 1W, 2W, 3W -1W -2W -3W +1W +2W +3W
Monate: 1M, 3M, 6M -1M -3M -6M +1M +3M +6M
Jahre:    1J, 3J, 5J, 10J -1J -3J -5J -10J +1J +3J +5J +10J
Nutze für die Darstellung ... ?
Originaldaten oder Mittelwerte auf ...
Stundenbasis Tagesbasis Wochenbasis
Monatsbasis Jahresbasis      Datenbasis: Original-Daten
Darstellen als:
Statistik (Auto) Statistik J:M      Darstellung:
Zur Graphik,    zurück zur Übersicht aller Sensoren.
 
Tabellarische Datenbersicht: ?
 
Sensor: Nr:Datum:Temp:Abs-Feuchte:Windchill:Wind:
Aussen-T/F 1 24-11-2014 00:00:00 7.6 C 7.81 g/m*3 7.6 C 0 km/h
2 24-11-2014 00:05:00 7.6 C 7.81 g/m*3 7.6 C 0 km/h
3 24-11-2014 00:10:00 7.6 C 7.81 g/m*3 7.6 C 0 km/h
4 24-11-2014 00:15:00 7.6 C 7.81 g/m*3 7.6 C 0 km/h
5 24-11-2014 00:20:00 7.6 C 7.81 g/m*3 7.6 C 0 km/h
6 24-11-2014 00:25:00 7.6 C 7.81 g/m*3 7.6 C 0 km/h
7 24-11-2014 00:30:00 7.6 C 7.81 g/m*3 7.6 C 0 km/h
8 24-11-2014 00:35:00 7.6 C 7.81 g/m*3 7.6 C 0 km/h
9 24-11-2014 00:40:00 7.6 C 7.81 g/m*3 7.6 C 0 km/h
10 24-11-2014 00:45:00 7.6 C 7.81 g/m*3 7.6 C 0 km/h
11 24-11-2014 00:50:00 7.6 C 7.81 g/m*3 7.6 C 0 km/h
12 24-11-2014 00:55:00 7.6 C 7.81 g/m*3 7.6 C 0 km/h
13 24-11-2014 01:00:00 7.6 C 7.81 g/m*3 7.6 C 0 km/h
14 24-11-2014 01:05:00 7.6 C 7.81 g/m*3 7.6 C 0 km/h
15 24-11-2014 01:10:00 7.6 C 7.81 g/m*3 7.6 C 0 km/h
16 24-11-2014 01:15:00 7.6 C 7.81 g/m*3 7.6 C 0 km/h
17 24-11-2014 01:20:00 7.6 C 7.81 g/m*3 7.6 C 0 km/h
18 24-11-2014 01:25:00 7.7 C 7.87 g/m*3 7.7 C 0 km/h
19 24-11-2014 01:30:00 7.7 C 7.87 g/m*3 7.7 C 0 km/h
20 24-11-2014 01:35:00 7.6 C 7.81 g/m*3 7.6 C 0 km/h
21 24-11-2014 01:40:00 7.6 C 7.81 g/m*3 7.6 C 1.6 km/h
22 24-11-2014 01:45:00 7.6 C 7.81 g/m*3 7.6 C 1.6 km/h
23 24-11-2014 01:50:00 7.7 C 7.87 g/m*3 7.7 C 3.2 km/h
24 24-11-2014 01:55:00 7.7 C 7.87 g/m*3 7.7 C 3.2 km/h
25 24-11-2014 02:00:00 7.8 C 7.92 g/m*3 7.8 C 1.6 km/h
Sensor: Nr:Datum:Temp:Abs-Feuchte:Windchill:Wind:
Aussen-T/F 26 24-11-2014 02:05:00 7.8 C 7.92 g/m*3 7.8 C 1.6 km/h
27 24-11-2014 02:10:00 7.9 C 7.97 g/m*3 7.9 C 1.6 km/h
28 24-11-2014 02:15:00 7.9 C 7.97 g/m*3 7.9 C 0 km/h
29 24-11-2014 02:20:00 7.9 C 7.97 g/m*3 7.9 C 0 km/h
30 24-11-2014 02:25:00 7.9 C 7.97 g/m*3 7.9 C 0 km/h
31 24-11-2014 02:30:00 7.9 C 7.97 g/m*3 7.9 C 0 km/h
32 24-11-2014 02:35:00 8 C 8.02 g/m*3 8 C 0 km/h
33 24-11-2014 02:40:00 8 C 8.02 g/m*3 8 C 0 km/h
34 24-11-2014 02:45:00 8 C 8.02 g/m*3 8 C 0 km/h
35 24-11-2014 02:50:00 8.1 C 8.07 g/m*3 8.1 C 0 km/h
36 24-11-2014 02:55:00 8 C 8.02 g/m*3 8 C 0 km/h
37 24-11-2014 03:00:00 7.9 C 7.97 g/m*3 7.9 C 0 km/h
38 24-11-2014 03:05:00 8 C 8.02 g/m*3 8 C 0 km/h
39 24-11-2014 03:10:00 8 C 8.02 g/m*3 8 C 0 km/h
40 24-11-2014 03:15:00 7.9 C 7.97 g/m*3 7.9 C 0 km/h
41 24-11-2014 03:20:00 7.9 C 7.97 g/m*3 7.9 C 0 km/h
42 24-11-2014 03:25:00 7.9 C 7.97 g/m*3 7.9 C 0 km/h
43 24-11-2014 03:30:00 7.9 C 7.97 g/m*3 7.9 C 0 km/h
44 24-11-2014 03:35:00 7.9 C 7.97 g/m*3 7.9 C 0 km/h
45 24-11-2014 03:40:00 7.9 C 7.97 g/m*3 7.9 C 0 km/h
46 24-11-2014 03:45:00 7.9 C 7.97 g/m*3 7.9 C 0 km/h
47 24-11-2014 03:50:00 7.9 C 7.97 g/m*3 7.9 C 0 km/h
48 24-11-2014 03:55:00 7.8 C 7.92 g/m*3 7.8 C 0 km/h
49 24-11-2014 04:00:00 7.9 C 7.97 g/m*3 7.9 C 0 km/h
50 24-11-2014 04:05:00 7.9 C 7.97 g/m*3 7.9 C 0 km/h
Sensor: Nr:Datum:Temp:Abs-Feuchte:Windchill:Wind:
Aussen-T/F 51 24-11-2014 04:10:00 7.9 C 7.97 g/m*3 7.9 C 0 km/h
52 24-11-2014 04:15:00 7.9 C 7.97 g/m*3 7.9 C 0 km/h
53 24-11-2014 04:20:00 7.9 C 7.97 g/m*3 7.9 C 1.6 km/h
54 24-11-2014 04:25:00 7.9 C 7.97 g/m*3 7.9 C 0 km/h
55 24-11-2014 04:30:00 7.9 C 7.97 g/m*3 7.9 C 1.6 km/h
56 24-11-2014 04:35:00 7.9 C 7.97 g/m*3 7.9 C 0 km/h
57 24-11-2014 04:40:00 8 C 8.02 g/m*3 8 C 1.6 km/h
58 24-11-2014 04:45:00 8.1 C 8.07 g/m*3 8.1 C 1.6 km/h
59 24-11-2014 04:50:00 8.1 C 8.07 g/m*3 8.1 C 4.8 km/h
60 24-11-2014 04:55:00 8 C 7.94 g/m*3 8 C 1.6 km/h
61 24-11-2014 05:00:00 8 C 7.94 g/m*3 8 C 0 km/h
62 24-11-2014 05:05:00 8 C 7.94 g/m*3 8 C 0 km/h
63 24-11-2014 05:10:00 8 C 7.94 g/m*3 8 C 0 km/h
64 24-11-2014 05:15:00 8 C 7.94 g/m*3 8 C 0 km/h
65 24-11-2014 05:20:00 8 C 7.94 g/m*3 8 C 4.8 km/h
66 24-11-2014 05:25:00 8.1 C 7.99 g/m*3 8.1 C 1.6 km/h
67 24-11-2014 05:30:00 8.2 C 8.04 g/m*3 7.29 C 6.4 km/h
68 24-11-2014 05:35:00 8.3 C 8.09 g/m*3 7.41 C 6.4 km/h
69 24-11-2014 05:40:00 8.3 C 8.09 g/m*3 8.3 C 4.8 km/h
70 24-11-2014 05:45:00 8.4 C 8.14 g/m*3 8.4 C 3.2 km/h
71 24-11-2014 05:50:00 8.4 C 8.23 g/m*3 8.4 C 3.2 km/h
72 24-11-2014 05:55:00 8.6 C 8.34 g/m*3 8.6 C 3.2 km/h
73 24-11-2014 06:00:00 8.9 C 8.5 g/m*3 8.9 C 4.8 km/h
74 24-11-2014 06:05:00 9.2 C 8.66 g/m*3 9.2 C 3.2 km/h
75 24-11-2014 06:10:00 9.2 C 8.66 g/m*3 9.2 C 0 km/h
Sensor: Nr:Datum:Temp:Abs-Feuchte:Windchill:Wind:
Aussen-T/F 76 24-11-2014 06:15:00 9.3 C 8.72 g/m*3 9.3 C 1.6 km/h
77 24-11-2014 06:20:00 9.3 C 8.72 g/m*3 9.3 C 3.2 km/h
78 24-11-2014 06:25:00 9.3 C 8.72 g/m*3 9.3 C 1.6 km/h
79 24-11-2014 06:30:00 9.4 C 8.77 g/m*3 9.4 C 4.8 km/h
80 24-11-2014 06:35:00 9.5 C 8.83 g/m*3 9.5 C 3.2 km/h
81 24-11-2014 06:40:00 9.5 C 8.83 g/m*3 9.5 C 3.2 km/h
82 24-11-2014 06:45:00 9.6 C 8.89 g/m*3 9.6 C 3.2 km/h
83 24-11-2014 06:50:00 9.6 C 8.89 g/m*3 8.91 C 6.4 km/h
84 24-11-2014 06:55:00 9.6 C 8.89 g/m*3 9.6 C 0 km/h
85 24-11-2014 07:00:00 9.7 C 8.94 g/m*3 9.7 C 1.6 km/h
86 24-11-2014 07:05:00 9.6 C 8.89 g/m*3 9.6 C 0 km/h
87 24-11-2014 07:10:00 9.6 C 8.89 g/m*3 9.6 C 1.6 km/h
88 24-11-2014 07:15:00 9.7 C 8.94 g/m*3 9.7 C 4.8 km/h
89 24-11-2014 07:20:00 9.7 C 8.94 g/m*3 9.7 C 4.8 km/h
90 24-11-2014 07:25:00 9.8 C 9 g/m*3 9.8 C 4.8 km/h
91 24-11-2014 07:30:00 9.8 C 9 g/m*3 9.8 C 4.8 km/h
92 24-11-2014 07:35:00 9.8 C 8.91 g/m*3 8.45 C 9.7 km/h
93 24-11-2014 07:40:00 9.9 C 8.96 g/m*3 8.87 C 8.1 km/h
94 24-11-2014 07:45:00 9.9 C 8.96 g/m*3 9.9 C 4.8 km/h
95 24-11-2014 07:50:00 9.9 C 8.96 g/m*3 9.9 C 1.6 km/h
96 24-11-2014 07:55:00 9.9 C 8.87 g/m*3 9.25 C 6.4 km/h
97 24-11-2014 08:00:00 9.9 C 8.87 g/m*3 8.56 C 9.7 km/h
98 24-11-2014 08:05:00 9.9 C 8.87 g/m*3 8.56 C 9.7 km/h
99 24-11-2014 08:10:00 9.9 C 8.78 g/m*3 8.3 C 11.3 km/h
100 24-11-2014 08:15:00 9.9 C 8.87 g/m*3 9.9 C 4.8 km/h
Sensor: Nr:Datum:Temp:Abs-Feuchte:Windchill:Wind:
Aussen-T/F 101 24-11-2014 08:20:00 9.9 C 8.78 g/m*3 9.9 C 1.6 km/h
102 24-11-2014 08:25:00 9.9 C 8.78 g/m*3 9.9 C 0 km/h
103 24-11-2014 08:30:00 9.8 C 8.81 g/m*3 9.8 C 0 km/h
104 24-11-2014 08:35:00 9.8 C 8.72 g/m*3 8.75 C 8.1 km/h
105 24-11-2014 08:40:00 9.8 C 8.72 g/m*3 9.8 C 4.8 km/h
106 24-11-2014 08:45:00 9.8 C 8.72 g/m*3 8.75 C 8.1 km/h
107 24-11-2014 08:50:00 9.8 C 8.72 g/m*3 9.8 C 4.8 km/h
108 24-11-2014 08:55:00 9.8 C 8.72 g/m*3 9.8 C 4.8 km/h
109 24-11-2014 09:00:00 9.8 C 8.72 g/m*3 9.8 C 4.8 km/h
110 24-11-2014 09:05:00 9.8 C 8.72 g/m*3 9.8 C 1.6 km/h
111 24-11-2014 09:10:00 9.8 C 8.81 g/m*3 9.8 C 4.8 km/h
112 24-11-2014 09:15:00 9.7 C 8.76 g/m*3 9.7 C 3.2 km/h
113 24-11-2014 09:20:00 9.7 C 8.76 g/m*3 9.7 C 4.8 km/h
114 24-11-2014 09:25:00 9.7 C 8.76 g/m*3 9.7 C 3.2 km/h
115 24-11-2014 09:30:00 9.6 C 8.7 g/m*3 9.6 C 1.6 km/h
116 24-11-2014 09:35:00 9.6 C 8.79 g/m*3 9.6 C 3.2 km/h
117 24-11-2014 09:40:00 9.6 C 8.79 g/m*3 9.6 C 3.2 km/h
118 24-11-2014 09:45:00 9.6 C 8.79 g/m*3 9.6 C 3.2 km/h
119 24-11-2014 09:50:00 9.6 C 8.79 g/m*3 9.6 C 4.8 km/h
120 24-11-2014 09:55:00 9.6 C 8.7 g/m*3 9.6 C 0 km/h
121 24-11-2014 10:00:00 9.7 C 8.76 g/m*3 9.7 C 1.6 km/h
122 24-11-2014 10:05:00 9.7 C 8.76 g/m*3 9.7 C 0 km/h
123 24-11-2014 10:10:00 9.7 C 8.76 g/m*3 9.7 C 1.6 km/h
124 24-11-2014 10:15:00 9.7 C 8.85 g/m*3 9.7 C 0 km/h
125 24-11-2014 10:20:00 9.7 C 8.85 g/m*3 9.7 C 0 km/h
Sensor: Nr:Datum:Temp:Abs-Feuchte:Windchill:Wind:
Aussen-T/F 126 24-11-2014 10:25:00 9.7 C 8.85 g/m*3 9.7 C 1.6 km/h
127 24-11-2014 10:30:00 9.7 C 8.76 g/m*3 9.02 C 6.4 km/h
128 24-11-2014 10:35:00 9.7 C 8.76 g/m*3 8.63 C 8.1 km/h
129 24-11-2014 10:40:00 9.7 C 8.76 g/m*3 9.7 C 3.2 km/h
130 24-11-2014 10:45:00 9.7 C 8.67 g/m*3 8.63 C 8.1 km/h
131 24-11-2014 10:50:00 9.7 C 8.67 g/m*3 9.7 C 1.6 km/h
132 24-11-2014 10:55:00 9.8 C 8.72 g/m*3 8.75 C 8.1 km/h
133 24-11-2014 11:00:00 9.8 C 8.72 g/m*3 8.18 C 11.3 km/h
134 24-11-2014 11:05:00 9.8 C 8.72 g/m*3 9.8 C 4.8 km/h
135 24-11-2014 11:10:00 9.8 C 8.72 g/m*3 9.8 C 3.2 km/h
136 24-11-2014 11:15:00 9.7 C 8.67 g/m*3 9.7 C 4.8 km/h
137 24-11-2014 11:20:00 9.7 C 8.57 g/m*3 9.7 C 1.6 km/h
138 24-11-2014 11:25:00 9.8 C 8.72 g/m*3 9.8 C 0 km/h
139 24-11-2014 11:30:00 9.8 C 8.72 g/m*3 9.8 C 4.8 km/h
140 24-11-2014 11:35:00 9.9 C 8.78 g/m*3 9.9 C 0 km/h
141 24-11-2014 11:40:00 9.9 C 8.68 g/m*3 9.9 C 1.6 km/h
142 24-11-2014 11:45:00 10 C 8.64 g/m*3 10 C 1.6 km/h
143 24-11-2014 11:50:00 9.9 C 8.59 g/m*3 9.9 C 0 km/h
144 24-11-2014 11:55:00 9.9 C 8.68 g/m*3 9.9 C 0 km/h
145 24-11-2014 12:00:00 9.9 C 8.68 g/m*3 9.9 C 0 km/h
146 24-11-2014 12:05:00 9.8 C 8.54 g/m*3 9.14 C 6.4 km/h
147 24-11-2014 12:10:00 9.9 C 8.59 g/m*3 9.9 C 0 km/h
148 24-11-2014 12:15:00 9.9 C 8.59 g/m*3 9.9 C 3.2 km/h
149 24-11-2014 12:20:00 10.1 C 8.7 g/m*3 10.1 C 1.6 km/h
150 24-11-2014 12:25:00 10.1 C 8.61 g/m*3 10.1 C 4.8 km/h
Sensor: Nr:Datum:Temp:Abs-Feuchte:Windchill:Wind:
Aussen-T/F 151 24-11-2014 12:30:00 10.1 C 8.61 g/m*3 9.48 C 6.4 km/h
152 24-11-2014 12:35:00 10.1 C 8.42 g/m*3 8.8 C 9.7 km/h
153 24-11-2014 12:40:00 10.1 C 8.32 g/m*3 9.48 C 6.4 km/h
154 24-11-2014 12:45:00 10.1 C 8.32 g/m*3 10.1 C 1.6 km/h
155 24-11-2014 12:50:00 10.1 C 8.32 g/m*3 8.8 C 9.7 km/h
156 24-11-2014 12:55:00 10.1 C 8.13 g/m*3 8.54 C 11.3 km/h
157 24-11-2014 13:00:00 9.9 C 8.03 g/m*3 9.9 C 4.8 km/h
158 24-11-2014 13:05:00 9.9 C 8.12 g/m*3 9.25 C 6.4 km/h
159 24-11-2014 13:10:00 9.8 C 8.07 g/m*3 7.94 C 12.9 km/h
160 24-11-2014 13:15:00 9.9 C 8.12 g/m*3 8.87 C 8.1 km/h
161 24-11-2014 13:20:00 9.9 C 8.12 g/m*3 8.56 C 9.7 km/h
162 24-11-2014 13:25:00 9.9 C 8.03 g/m*3 8.3 C 11.3 km/h
163 24-11-2014 13:30:00 9.9 C 7.94 g/m*3 9.9 C 4.8 km/h
164 24-11-2014 13:35:00 10 C 7.99 g/m*3 10 C 4.8 km/h
165 24-11-2014 13:40:00 10.1 C 8.13 g/m*3 8.8 C 9.7 km/h
166 24-11-2014 13:45:00 10.2 C 7.99 g/m*3 8.43 C 12.9 km/h
167 24-11-2014 13:50:00 10.2 C 7.9 g/m*3 9.22 C 8.1 km/h
168 24-11-2014 13:55:00 10.2 C 7.9 g/m*3 9.22 C 8.1 km/h
169 24-11-2014 14:00:00 10.2 C 7.99 g/m*3 9.22 C 8.1 km/h
170 24-11-2014 14:05:00 10.3 C 7.95 g/m*3 9.04 C 9.7 km/h
171 24-11-2014 14:10:00 10.4 C 8 g/m*3 9.16 C 9.7 km/h
172 24-11-2014 14:15:00 10.5 C 8.05 g/m*3 8.4 C 16.1 km/h
173 24-11-2014 14:20:00 10.5 C 8.05 g/m*3 8.8 C 12.9 km/h
174 24-11-2014 14:25:00 10.4 C 8 g/m*3 8.9 C 11.3 km/h
175 24-11-2014 14:30:00 10.3 C 7.85 g/m*3 8.78 C 11.3 km/h
Sensor: Nr:Datum:Temp:Abs-Feuchte:Windchill:Wind:
Aussen-T/F 176 24-11-2014 14:35:00 10.1 C 7.85 g/m*3 8.8 C 9.7 km/h
177 24-11-2014 14:40:00 10 C 7.71 g/m*3 8.68 C 9.7 km/h
178 24-11-2014 14:45:00 9.9 C 7.75 g/m*3 9.9 C 4.8 km/h
179 24-11-2014 14:50:00 9.9 C 7.66 g/m*3 9.9 C 3.2 km/h
180 24-11-2014 14:55:00 9.9 C 7.66 g/m*3 9.9 C 4.8 km/h
181 24-11-2014 15:00:00 9.9 C 7.66 g/m*3 9.9 C 1.6 km/h
182 24-11-2014 15:05:00 9.9 C 7.66 g/m*3 9.9 C 0 km/h
183 24-11-2014 15:10:00 9.6 C 7.51 g/m*3 8.52 C 8.1 km/h
184 24-11-2014 15:15:00 9.3 C 7.55 g/m*3 9.3 C 3.2 km/h
185 24-11-2014 15:20:00 9.3 C 7.55 g/m*3 9.3 C 4.8 km/h
186 24-11-2014 16:50:00 6.4 C 7 g/m*3 5.21 C 6.4 km/h
187 24-11-2014 16:55:00 6.3 C 6.96 g/m*3 6.3 C 4.8 km/h
188 24-11-2014 17:00:00 6.2 C 6.91 g/m*3 6.2 C 3.2 km/h
189 24-11-2014 17:05:00 6.2 C 6.91 g/m*3 6.2 C 3.2 km/h
190 24-11-2014 17:10:00 6 C 6.9 g/m*3 6 C 4.8 km/h
191 24-11-2014 17:15:00 5.9 C 6.85 g/m*3 5.9 C 4.8 km/h
192 24-11-2014 17:20:00 5.9 C 6.85 g/m*3 4.63 C 6.4 km/h
193 24-11-2014 17:25:00 5.9 C 6.85 g/m*3 5.9 C 4.8 km/h
194 24-11-2014 17:30:00 5.9 C 6.85 g/m*3 5.9 C 1.6 km/h
195 24-11-2014 17:35:00 5.8 C 6.81 g/m*3 5.8 C 3.2 km/h
196 24-11-2014 17:40:00 5.6 C 6.72 g/m*3 5.6 C 4.8 km/h
197 24-11-2014 17:45:00 5.6 C 6.72 g/m*3 5.6 C 3.2 km/h
198 24-11-2014 17:50:00 5.6 C 6.79 g/m*3 5.6 C 0 km/h
199 24-11-2014 17:55:00 5.6 C 6.72 g/m*3 5.6 C 3.2 km/h
200 24-11-2014 18:00:00 5.4 C 6.63 g/m*3 5.4 C 1.6 km/h
Sensor: Nr:Datum:Temp:Abs-Feuchte:Windchill:Wind:
Aussen-T/F 201 24-11-2014 18:05:00 5.3 C 6.58 g/m*3 5.3 C 0 km/h
202 24-11-2014 18:10:00 5.3 C 6.65 g/m*3 5.3 C 3.2 km/h
203 24-11-2014 18:15:00 5.3 C 6.65 g/m*3 5.3 C 1.6 km/h
204 24-11-2014 18:20:00 5.2 C 6.61 g/m*3 5.2 C 0 km/h
205 24-11-2014 18:25:00 5.1 C 6.57 g/m*3 5.1 C 0 km/h
206 24-11-2014 18:30:00 5 C 6.52 g/m*3 5 C 1.6 km/h
207 24-11-2014 18:35:00 4.9 C 6.48 g/m*3 4.9 C 0 km/h
208 24-11-2014 18:40:00 4.8 C 6.44 g/m*3 4.8 C 0 km/h
209 24-11-2014 18:45:00 4.8 C 6.44 g/m*3 4.8 C 0 km/h
210 24-11-2014 18:50:00 4.7 C 6.39 g/m*3 4.7 C 0 km/h
211 24-11-2014 18:55:00 4.7 C 6.39 g/m*3 4.7 C 0 km/h
212 24-11-2014 19:00:00 4.6 C 6.35 g/m*3 4.6 C 0 km/h
213 24-11-2014 19:05:00 4.6 C 6.35 g/m*3 4.6 C 0 km/h
214 24-11-2014 19:10:00 4.3 C 6.23 g/m*3 4.3 C 0 km/h
215 24-11-2014 19:15:00 4.2 C 6.19 g/m*3 4.2 C 0 km/h
216 24-11-2014 19:20:00 4.2 C 6.19 g/m*3 4.2 C 0 km/h
217 24-11-2014 19:25:00 4.1 C 6.14 g/m*3 4.1 C 0 km/h
218 24-11-2014 19:30:00 4.1 C 6.21 g/m*3 4.1 C 0 km/h
219 24-11-2014 19:35:00 4.1 C 6.21 g/m*3 4.1 C 0 km/h
220 24-11-2014 19:40:00 4.1 C 6.21 g/m*3 4.1 C 0 km/h
221 24-11-2014 19:45:00 3.9 C 6.06 g/m*3 3.9 C 0 km/h
222 24-11-2014 19:50:00 3.9 C 6.13 g/m*3 3.9 C 0 km/h
223 24-11-2014 19:55:00 3.9 C 6.13 g/m*3 3.9 C 0 km/h
224 24-11-2014 20:00:00 3.8 C 6.09 g/m*3 3.8 C 0 km/h
225 24-11-2014 20:05:00 3.8 C 6.09 g/m*3 3.8 C 0 km/h
Sensor: Nr:Datum:Temp:Abs-Feuchte:Windchill:Wind:
Aussen-T/F 226 24-11-2014 20:10:00 3.7 C 6.04 g/m*3 3.7 C 0 km/h
227 24-11-2014 20:15:00 3.7 C 6.04 g/m*3 3.7 C 0 km/h
228 24-11-2014 20:20:00 3.7 C 6.04 g/m*3 3.7 C 0 km/h
229 24-11-2014 20:25:00 3.6 C 6 g/m*3 3.6 C 0 km/h
230 24-11-2014 20:30:00 3.6 C 6 g/m*3 3.6 C 0 km/h
231 24-11-2014 20:35:00 3.6 C 6 g/m*3 3.6 C 0 km/h
232 24-11-2014 20:40:00 3.4 C 5.92 g/m*3 3.4 C 0 km/h
233 24-11-2014 20:45:00 3.3 C 5.88 g/m*3 3.3 C 0 km/h
234 24-11-2014 20:50:00 3.1 C 5.81 g/m*3 3.1 C 0 km/h
235 24-11-2014 20:55:00 3.1 C 5.81 g/m*3 3.1 C 0 km/h
236 24-11-2014 21:00:00 3.1 C 5.81 g/m*3 3.1 C 0 km/h
237 24-11-2014 21:05:00 3.1 C 5.81 g/m*3 3.1 C 0 km/h
238 24-11-2014 21:10:00 3 C 5.77 g/m*3 3 C 0 km/h
239 24-11-2014 21:15:00 2.9 C 5.73 g/m*3 2.9 C 0 km/h
240 24-11-2014 21:20:00 2.8 C 5.69 g/m*3 2.8 C 0 km/h
241 24-11-2014 21:25:00 2.8 C 5.69 g/m*3 2.8 C 0 km/h
242 24-11-2014 21:30:00 2.7 C 5.65 g/m*3 2.7 C 0 km/h
243 24-11-2014 21:35:00 2.7 C 5.65 g/m*3 2.7 C 0 km/h
244 24-11-2014 21:40:00 2.7 C 5.65 g/m*3 2.7 C 0 km/h
245 24-11-2014 21:45:00 2.7 C 5.65 g/m*3 2.7 C 0 km/h
246 24-11-2014 21:50:00 2.7 C 5.65 g/m*3 2.7 C 0 km/h
247 24-11-2014 21:55:00 2.6 C 5.61 g/m*3 2.6 C 0 km/h
248 24-11-2014 22:00:00 2.5 C 5.58 g/m*3 2.5 C 0 km/h
249 24-11-2014 22:05:00 2.5 C 5.58 g/m*3 2.5 C 0 km/h
250 24-11-2014 22:10:00 2.5 C 5.58 g/m*3 2.5 C 0 km/h
Sensor: Nr:Datum:Temp:Abs-Feuchte:Windchill:Wind:
Aussen-T/F 251 24-11-2014 22:15:00 2.4 C 5.54 g/m*3 2.4 C 0 km/h
252 24-11-2014 22:20:00 2.4 C 5.54 g/m*3 2.4 C 0 km/h
253 24-11-2014 22:25:00 2.3 C 5.5 g/m*3 2.3 C 0 km/h
254 24-11-2014 22:30:00 2.3 C 5.5 g/m*3 2.3 C 0 km/h
255 24-11-2014 22:35:00 2.3 C 5.5 g/m*3 2.3 C 0 km/h
256 24-11-2014 22:40:00 2.2 C 5.46 g/m*3 2.2 C 0 km/h
257 24-11-2014 22:45:00 2.1 C 5.43 g/m*3 2.1 C 0 km/h
258 24-11-2014 22:50:00 2 C 5.39 g/m*3 2 C 0 km/h
259 24-11-2014 22:55:00 2 C 5.39 g/m*3 2 C 1.6 km/h
260 24-11-2014 23:00:00 2 C 5.39 g/m*3 2 C 0 km/h
261 24-11-2014 23:05:00 1.9 C 5.35 g/m*3 1.9 C 0 km/h
262 24-11-2014 23:10:00 1.9 C 5.35 g/m*3 1.9 C 0 km/h
263 24-11-2014 23:15:00 1.9 C 5.35 g/m*3 1.9 C 0 km/h
264 24-11-2014 23:20:00 1.9 C 5.41 g/m*3 1.9 C 0 km/h
265 24-11-2014 23:25:00 1.9 C 5.41 g/m*3 1.9 C 0 km/h
266 24-11-2014 23:30:00 1.9 C 5.41 g/m*3 1.9 C 0 km/h
267 24-11-2014 23:35:00 1.9 C 5.41 g/m*3 1.9 C 0 km/h
268 24-11-2014 23:40:00 2 C 5.45 g/m*3 2 C 0 km/h
269 24-11-2014 23:45:00 2.1 C 5.48 g/m*3 2.1 C 1.6 km/h
270 24-11-2014 23:50:00 2.1 C 5.48 g/m*3 2.1 C 1.6 km/h
271 24-11-2014 23:55:00 2.1 C 5.48 g/m*3 2.1 C 0 km/h

Legende:
   Min
   Max


Maximal/Minimal-Werte vom 24.11.2014 - 24.11.2014

Sensor Min Max Avg
Temp
(Aussen-T/F)
1.9 °C
24-11-2014  23:05:00
10.5 °C
24-11-2014  14:15:00
7.37 °C
Abs-Feuchte
(Aussen-T/F)
5.35 g/m*3
24-11-2014  23:05:00
9 g/m*3
24-11-2014  07:25:00
7.55 g/m*3
Windchill
(Aussen-T/F)
1.9 C
24-11-2014  23:05:00
10.1 C
24-11-2014  12:20:00
7.15 C

Die Daten stammen von einer Davis Vantage Pro 2 Wetter-Station und werden unter Linux mit der Software wview2wettercgi und aufbereitet. Alle Angaben erfolgen ohne Gewähr für ihre Vollständigkeit oder Richtigkeit.
Kontakt: Rainer Krienke krienke@uni-koblenz.de . Meine Webseiten an der Uni Koblenz oder privat.
Version: $Revision: 0.78 $